This is the latest recevied weather packets stored in our database for station/object IW1RCO-13. If no packets are shown the sender has not sent any weather packets the latest 1 day(s).
| Time | Temp. | Humidity | Pressure | Rain* | Wind** | Luminosity | Snow |
|---|---|---|---|---|---|---|---|
| 1778061243 | 12.22° C | 99% | 1007.5 hPa | - | - | - | - |
| 1778060339 | 11.67° C | 99% | 1007.4 hPa | - | - | - | - |
| 1778059442 | 12.22° C | 99% | 1007.6 hPa | - | - | - | - |
| 1778058842 | 12.22° C | 99% | 1007.6 hPa | - | - | - | - |
| 1778057945 | 12.22° C | 99% | 1008.1 hPa | - | - | - | - |
| 1778057345 | 12.22° C | 99% | 1007.7 hPa | - | - | - | - |
| 1778056441 | 12.22° C | 99% | 1007.5 hPa | - | - | - | - |
| 1778055841 | 12.22° C | 98% | 1007.5 hPa | - | - | - | - |
| 1778055544 | 11.11° C | 98% | 1007.7 hPa | - | - | - | - |
| 1778054944 | 11.67° C | 93% | 1007.5 hPa | - | - | - | - |
| 1778054040 | 12.22° C | 97% | 1007.2 hPa | - | - | - | - |
| 1778053440 | 12.22° C | 98% | 1007.5 hPa | - | - | - | - |
| 1778052543 | 12.22° C | 97% | 1007.5 hPa | - | - | - | - |
| 1778051943 | 12.22° C | 97% | 1007.6 hPa | - | - | - | - |
| 1778051639 | 12.22° C | 97% | 1008 hPa | - | - | - | - |
| 1778051039 | 12.22° C | 96% | 1007.7 hPa | - | - | - | - |
| 1778050142 | 12.22° C | 96% | 1007.5 hPa | - | - | - | - |
| 1778049542 | 12.22° C | 95% | 1007.7 hPa | - | - | - | - |
| 1778046541 | 11.67° C | 97% | 1007.5 hPa | - | - | - | - |
| 1778046244 | 11.67° C | 97% | 1007.8 hPa | - | - | - | - |
| 1778045644 | 11.67° C | 98% | 1008 hPa | - | - | - | - |
| 1778045340 | 11.67° C | 98% | 1007.7 hPa | - | - | - | - |
| 1778044740 | 11.67° C | 97% | 1007.5 hPa | - | - | - | - |
| 1778044140 | 11.67° C | 99% | 1007.6 hPa | - | - | - | - |
| 1778043243 | 11.67° C | 99% | 1007.8 hPa | - | - | - | - |
* Rain since midnight (hover to see other rain measurements)
** Current wind speed in m/s (hover to see current wind gust speed)